Weather History for Las Vegas, NM

Change the Weather History Date:

Wednesday, November 21, 2012

  Actual Average Record
Temperature  
Mean Temperature 44 °F -  
Max Temperature 60 °F 51 °F 72 °F (1950)
Min Temperature 28 °F 23 °F 2 °F (1957)
Degree Days  
Heating Degree Days 21    
Moisture  
Dew Point 16 °F    
Average Humidity 32    
Maximum Humidity 51    
Minimum Humidity 13    
Precipitation  
Precipitation 0.00 in - - ()
Sea Level Pressure  
Sea Level Pressure 30.04 in    
Wind  
Wind Speed 12 mph (SSW)    
Max Wind Speed 26 mph    
Max Gust Speed 32 mph    
Visibility 10 miles    
Events      
Averages and records for this station are not official NWS values.
T = Trace of Precipitation, MM = Missing Value Source: NWS Daily Summary

Daily Weather History Graph

Daily Weather History Graph

Search for Another Location

Airport:

Trip Planner

Search our weather history database for the weather conditions in past years. The results will help you decide how hot, cold, wet, or windy it might be!

Date:

Astronomy

Nov. 21, 2012 Rise Set
Actual Time 6:42 AM MST 4:50 PM MST
Civil Twilight 6:15 AM MST 5:17 PM MST
Nautical Twilight 5:44 AM MST 5:48 PM MST
Astronomical Twilight 5:13 AM MST 6:19 PM MST
Moon 12:56 PM MST 12:16 AM MST
Length of Visible Light 11h 02m
Length of Day
10h 07m
Waxing Gibbous, 62% of the Moon is Illuminated
Nov 21
Waxing Gibbous
Nov 28
Full
Dec 6
Last Quarter
Dec 13
New
Dec 19
First Quarter

Hourly Weather History & Observations

Time (MST) Temp. Windchill Dew Point Humidity Pressure Visibility Wind Dir Wind Speed Gust Speed Precip Events Conditions
12:53 AM 33.1 °F 28.7 °F 7.0 °F 34% 30.11 in 10.0 mi South 4.6 mph - N/A   Clear
1:53 AM 34.0 °F 24.6 °F 7.0 °F 32% 30.10 in 10.0 mi South 13.8 mph - N/A   Clear
2:53 AM 37.0 °F 28.5 °F 3.9 °F 25% 30.08 in 10.0 mi South 13.8 mph - N/A   Clear
3:53 AM 37.9 °F 30.9 °F -0.0 °F 20% 30.06 in 10.0 mi South 10.4 mph - N/A   Clear
4:53 AM 39.9 °F 37.8 °F -2.0 °F 17% 30.08 in 10.0 mi SW 3.5 mph - N/A   Clear
5:53 AM 32.0 °F 22.5 °F 1.0 °F 27% 30.14 in 10.0 mi South 12.7 mph - N/A   Clear
6:53 AM 28.9 °F 18.6 °F -0.9 °F 28% 30.17 in 10.0 mi South 12.7 mph - N/A   Clear
7:53 AM 39.9 °F 33.4 °F -2.0 °F 17% 30.14 in 10.0 mi South 10.4 mph - N/A   Clear
8:53 AM 48.0 °F - -0.9 °F 13% 30.11 in 10.0 mi SSW 6.9 mph - N/A   Clear
9:53 AM 57.9 °F - 12.0 °F 16% 30.07 in 10.0 mi SSW 19.6 mph - N/A   Clear
10:53 AM 59.0 °F - 24.1 °F 26% 30.05 in 10.0 mi SW 23.0 mph 28.8 mph N/A   Clear
11:53 AM 59.0 °F - 28.9 °F 32% 30.04 in 10.0 mi SW 21.9 mph 27.6 mph N/A   Clear
12:53 PM 60.1 °F - 33.1 °F 36% 30.01 in 10.0 mi WSW 21.9 mph 31.1 mph N/A   Clear
1:53 PM 59.0 °F - 33.1 °F 38% 29.99 in 10.0 mi WSW 24.2 mph 32.2 mph N/A   Clear
2:53 PM 57.0 °F - 33.1 °F 40% 29.98 in 10.0 mi SW 26.5 mph 31.1 mph N/A   Partly Cloudy
3:53 PM 55.0 °F - 33.1 °F 43% 29.98 in 10.0 mi SW 20.7 mph 27.6 mph N/A   Overcast
4:53 PM 53.1 °F - 30.0 °F 41% 29.97 in 10.0 mi SW 17.3 mph - N/A   Partly Cloudy
5:53 PM 51.1 °F - 28.0 °F 41% 30.02 in 10.0 mi SW 15.0 mph - N/A   Partly Cloudy
6:53 PM 50.0 °F - 28.0 °F 43% 30.03 in 10.0 mi SSW 16.1 mph - N/A   Clear
7:53 PM 46.0 °F 40.6 °F 26.1 °F 46% 30.00 in 10.0 mi SSW 11.5 mph - N/A   Clear
8:53 PM 39.9 °F 33.9 °F 23.0 °F 51% 29.99 in 10.0 mi SSW 9.2 mph - N/A   Clear
9:53 PM 39.0 °F 34.0 °F 19.9 °F 46% 29.94 in 10.0 mi South 6.9 mph - N/A   Clear
10:53 PM 46.0 °F 43.9 °F 15.1 °F 29% 29.90 in 10.0 mi WSW 4.6 mph - N/A   Clear
11:53 PM 37.9 °F 34.4 °F 14.0 °F 38% 29.93 in 10.0 mi West 4.6 mph - N/A   Clear